Location: Unspecified
(42.7064°N, 0.0000°E)
Time: 00:31:26
(UTC+00:00)

Meteor 2-1 - Visible Passes

Search period start: 04 April 2026 00:00
Search period end: 14 April 2026 00:00
Orbit: 840 x 874 km, 81.3° (Epoch: 29 March)

Date Brightness Start Highest point End Pass type
(mag) Time Alt. Az. Time Alt. Az. Time Alt. Az.
4 Apr 5.9 04:16:55 10° N 04:22:19 45° ENE 04:27:42 10° SSE visible
4 Apr 7.7 19:12:27 10° WSW 19:16:33 21° WNW 19:20:40 10° NNW visible
5 Apr 6.0 04:06:42 10° N 04:12:03 43° ENE 04:17:24 10° SE visible
5 Apr 7.6 19:02:04 10° WSW 19:06:15 22° WNW 19:10:30 10° NNW visible
6 Apr 6.1 03:56:28 10° N 04:01:47 41° ENE 04:07:06 10° SE visible
7 Apr 6.1 03:46:15 10° N 03:51:31 39° ENE 03:56:47 10° SE visible
8 Apr 6.2 03:36:02 10° N 03:41:15 38° ENE 03:46:28 10° SE visible
9 Apr 6.3 03:25:49 10° N 03:30:59 36° ENE 03:36:09 10° SE visible
10 Apr 6.3 03:15:36 10° N 03:20:43 34° ENE 03:25:50 10° SE visible
11 Apr 6.4 03:05:23 10° N 03:10:27 33° ENE 03:15:30 10° SE visible
11 Apr 5.4 04:48:26 10° NNW 04:53:26 34° W 04:58:27 10° SSW visible
12 Apr 6.5 02:55:10 10° N 03:00:10 32° ENE 03:05:11 10° SE visible
12 Apr 5.3 04:38:08 10° NNW 04:43:12 35° W 04:48:17 10° SSW visible
13 Apr 6.5 02:44:57 10° N 02:49:54 30° ENE 02:54:50 10° SE visible
13 Apr 5.3 04:27:50 10° NNW 04:32:59 37° W 04:38:08 10° SSW visible
